Flag for China Weather past 2 weeks in Hohhot, Inner Mongolia, China

12 °F

Ice fog.

Feels Like: 6 °F
Forecast: 9 / 32 °F
Wind: 3 mph from East

Location: Hohhot Airport

Current Time: Nov 29, 2015 at 7:22:42 PM

Latest Report: Nov 29, 2015 at 7:00 PM

Visibility: 0 mi

Pressure: 30.21 "Hg (26.34 "Hg at 1053m altitude)

Humidity: 92%

Dew point: 10 °F

Location of HohhotLocation

Historic Weather in Hohhot — Graph


Hohhot temperature yesterday

Maximum temperature yesterday: 32 °F (at 2:00 PM)
Minimum temperature yesterday: 19 °F (at 11:00 PM)
Average temperature yesterday: 24 °F

Past Weeks' High & Low Weather Summary

High52 °F (Nov 15, 2:00 PM)93% (Nov 15, 1:00 AM)30.51 "Hg (Nov 15, 1:00 AM)
Low-9 °F (Nov 26, 7:00 AM)37% (Nov 21, 3:00 PM)29.95 "Hg (Nov 14, 5:00 PM)
Average27 °F74%30.18 "Hg
* Reported Nov 14 5:00 PM — Nov 29 5:00 PM, Hohhot, Weather by CustomWeather, © 2015

Note: Actual official high and low records may vary slightly from our data, if they occured in-between our weather recording intervals... More about our weather records


Hohhot weather history for previous 24 hours

Time TempWeatherWind HumidityBarometerVisibility
5:00 PM
Sun, Nov 29
19 °FIce fog.1 mph93%30.21 "Hg0 mi
4:00 PM19 °FIce fog.3 mph93%30.21 "Hg0 mi
3:00 PM19 °FIce fog.3 mph93%30.21 "Hg0 mi
2:00 PM19 °FIce fog.1 mph93%30.21 "Hg0 mi
1:00 PM18 °FIce fog.3 mph93%30.24 "Hg0 mi
12:00 PM18 °FIce fog.1 mph93%30.24 "Hg1 mi
11:00 AM14 °FIce fog.1 mph92%30.27 "Hg0 mi
10:00 AM12 °FIce fog.1 mph92%30.27 "Hg0 mi
9:00 AM12 °FIce fog.3 mph85%30.27 "Hg0 mi
8:00 AM14 °FIce fog.3 mph85%30.24 "Hg0 mi
7:00 AM14 °FIce fog.3 mph85%30.24 "Hg0 mi
6:00 AM14 °FIce fog.6 mph92%30.21 "Hg0 mi
5:00 AM14 °FIce fog.6 mph92%30.21 "Hg0 mi
4:00 AM16 °FIce fog.3 mph93%30.21 "Hg0 mi
3:00 AM18 °FIce fog.1 mph86%30.21 "Hg0 mi
2:00 AM18 °FIce fog.1 mph93%30.21 "Hg0 mi
1:00 AM18 °FIce fog.1 mph93%30.18 "Hg0 mi
12:00 AM19 °FIce fog.1 mph93%30.18 "Hg1 mi
11:00 PM
Sat, Nov 28
19 °FIce fog.3 mph93%30.18 "Hg1 mi
10:00 PM21 °FIce fog.3 mph86%30.18 "Hg3 mi
9:00 PM23 °FIce fog.3 mph86%30.15 "Hg3 mi
8:00 PM21 °FIce fog.1 mph86%30.15 "Hg3 mi
7:00 PM23 °FIce fog.3 mph93%30.12 "Hg2 mi
Weather by CustomWeather, © 2015

See weather overviewHow to use our weather pages